Location: LDNL
(36.4545°S, 141.6685°E)
Time: 17:51:42
(UTC+10:00)

ISS - Visible Passes

Search period start: 24 September 2023 00:00
Search period end: 04 October 2023 01:00
Orbit: 414 x 422 km, 51.6° (Epoch: 24 September)

Date Brightness Start Highest point End Pass type
(mag) Time Alt. Az. Time Alt. Az. Time Alt. Az.
24 Sep -1.0 03:58:24 20° ESE 03:58:24 20° ESE 03:59:36 10° SE visible
24 Sep -1.7 05:31:21 12° WSW 05:33:15 17° SSW 05:35:37 10° SSE visible
25 Sep -2.1 04:45:19 24° SSW 04:45:19 24° SSW 04:47:58 10° SSE visible
26 Sep -1.0 03:59:12 17° SSE 03:59:12 17° SSE 04:00:11 10° SE visible
27 Sep -1.3 04:45:55 13° SSW 04:46:08 13° SSW 04:47:47 10° S visible
28 Sep -0.8 03:59:38 12° S 03:59:38 12° S 04:00:12 10° SSE visible
